EW3454 Weather Reports


Display with metric or nautical units.
time (UTC)temp
F
wind
direction
speed
MPH
gust
MPH
rain 1hr
in
rain 24hr
in
rain mn
in
humidity
%
barometer
mb
20260507151115 56 65 3.0 8.0 0.00 0.65 0.65 1 1012.1
20260507150006 56 40 2.0 7.0 0.00 0.65 0.65 1 1012.1
20260507145405 56 32 3.0 10.0 0.00 0.65 0.65 1 1012.2
20260507144504 56 48 4.0 10.0 0.00 0.65 0.65 1 1012.0
20260507143604 56 51 4.0 12.0 0.00 0.65 0.65 1 1011.7
20260507142704 57 60 2.0 7.0 0.00 0.65 0.65 1 1011.7
20260507141805 57 63 3.0 11.0 0.00 0.65 0.65 1 1011.5
20260507140905 57 62 3.0 12.0 0.00 0.65 0.65 1 1011.5
20260507140005 57 34 3.0 9.0 0.00 0.65 0.65 1 1011.5
20260507135614 57 48 2.0 8.0 0.00 0.65 0.65 1 1011.5
20260507134717 58 64 3.0 10.0 0.00 0.65 0.65 1 1011.3
20260507133605 58 39 3.0 11.0 0.00 0.65 0.65 1 1011.5
20260507132916 58 44 3.0 10.0 0.00 0.65 0.65 1 1011.6
20260507132014 59 61 3.0 10.0 0.00 0.65 0.65 1 1011.3
20260507130905 59 42 2.0 9.0 0.00 0.65 0.65 1 1011.5
20260507130005 59 61 1.0 9.0 0.00 0.65 0.65 1 1011.4
20260507125404 59 68 3.0 9.0 0.01 0.65 0.65 1 1011.2
20260507124504 59 58 2.0 11.0 0.01 0.65 0.65 1 1011.5
20260507123604 59 53 2.0 9.0 0.02 0.65 0.65 1 1011.6
20260507122705 59 58 3.0 8.0 0.02 0.65 0.65 1 1011.3
20260507121805 59 55 3.0 10.0 0.02 0.65 0.65 1 1011.1
20260507120904 60 63 4.0 12.0 0.03 0.65 0.65 1 1011.3
20260507120005 61 57 3.0 12.0 0.03 0.65 0.65 1 1011.3
20260507115405 62 43 4.0 12.0 0.02 0.64 0.64 1 1011.2
20260507114504 66 137 0.0 3.0 0.02 0.64 0.64 1 1011.0
20260507113816 66 271 0.0 1.0 0.02 0.63 0.63 1 1010.9
20260507112705 65 271 0.0 1.0 0.03 0.63 0.63 1 1010.6
20260507111805 65 271 0.0 1.0 0.04 0.63 0.63 1 1010.4
20260507110904 65 271 0.0 1.0 0.06 0.62 0.62 1 1010.4
20260507110005 65 0 0.0 0.0 0.10 0.62 0.62 1 1010.4
20260507105404 65 270 0.0 3.0 0.18 0.62 0.62 1 1010.2
20260507104719 65 261 0.0 3.0 0.31 0.62 0.62 1 1010.1
20260507103816 65 277 0.0 3.0 0.48 0.61 0.61 1 1010.1
20260507102704 66 274 1.0 4.0 0.50 0.60 0.60 1 1010.1
20260507101805 66 269 2.0 9.0 0.49 0.59 0.59 1 1010.2
20260507100905 66 277 3.0 7.0 0.46 0.56 0.56 1 1010.0
20260507100215 66 267 2.0 7.0 0.43 0.53 0.54 1 1010.0
20260507095617 66 261 3.0 9.0 0.37 0.47 0.48 1 1010.0
20260507094504 66 273 1.0 4.0 0.19 0.25 0.26 1 1010.3
20260507093604 66 273 0.0 2.0 0.05 0.11 0.11 1 1009.9
20260507092704 66 268 0.0 3.0 0.04 0.10 0.10 1 1009.4
20260507091805 66 268 0.0 3.0 0.04 0.10 0.10 1 1009.1
20260507090905 66 258 1.0 5.0 0.04 0.10 0.10 1 1009.2
20260507090005 66 239 1.0 4.0 0.04 0.10 0.10 1 1009.5
20260507085405 66 263 1.0 4.0 0.03 0.09 0.09 1 1009.6
20260507084715 66 273 1.0 5.0 0.01 0.07 0.08 1 1009.7
20260507083604 66 199 1.0 6.0 0.00 0.06 0.06 1 1009.5
20260507082705 66 239 0.0 3.0 0.00 0.06 0.06 1 1009.7
20260507081805 66 216 1.0 4.0 0.00 0.06 0.06 1 1009.8
20260507081114 66 251 1.0 7.0 0.00 0.06 0.06 1 1009.8
20260507080005 66 229 0.0 3.0 0.00 0.06 0.06 1 1010.0
20260507075404 66 257 0.0 2.0 0.00 0.06 0.06 1 1010.0
20260507074504 66 293 1.0 4.0 0.01 0.06 0.06 1 1010.3
20260507073604 66 198 0.0 1.0 0.01 0.06 0.06 1 1010.5
20260507072705 66 245 0.0 3.0 0.01 0.06 0.06 1 1010.1
20260507071805 66 262 0.0 2.0 0.01 0.06 0.06 1 1010.2
20260507070904 66 236 0.0 2.0 0.02 0.06 0.06 1 1010.3
20260507070009 66 253 0.0 3.0 0.02 0.06 0.06 1 1010.4
20260507065404 66 277 0.0 2.0 0.02 0.06 0.06 1 1010.3
20260507064505 66 256 0.0 2.0 0.01 0.05 0.05 1 1010.1
20260507063604 67 247 0.0 1.0 0.02 0.05 0.05 1 1010.0
20260507062705 67 273 0.0 3.0 0.02 0.05 0.05 1 1009.6
20260507061805 67 187 0.0 2.0 0.03 0.05 0.05 1 1009.7
20260507060905 67 167 0.0 1.0 0.03 0.04 0.04 1 1009.9
20260507060218 68 211 0.0 2.0 0.03 0.04 0.04 1 1010.4
20260507055405 68 265 0.0 2.0 0.03 0.04 0.04 1 1011.0
20260507054717 68 229 0.0 1.0 0.04 0.04 0.04 1 1011.0
20260507053605 68 224 0.0 2.0 0.03 0.03 0.03 1 1011.2
20260507052704 68 0 0.0 0.0 0.03 0.03 0.03 1 1011.2
20260507052014 69 0 0.0 0.0 0.02 0.02 0.02 1 1011.4
20260507050905 69 224 0.0 1.0 0.01 0.01 0.01 1 1011.4
20260507050219 70 225 0.0 2.0 0.01 0.01 0.01 1 1011.4
20260507045404 70 249 0.0 1.0 0.01 0.01 0.01 1 1011.3
20260507044505 70 251 0.0 1.0 0.00 0.00 0.00 1 1011.0
20260507043605 70 251 0.0 1.0 0.00 0.00 0.00 1 1010.9
20260507042704 70 250 0.0 1.0 0.00 0.00 0.00 1 1011.0
20260507042015 70 256 0.0 3.0 0.00 0.00 0.00 1 1011.0
20260507041117 70 265 1.0 3.0 0.00 0.00 0.00 1 1011.0
20260507040115 70 235 0.0 3.0 0.00 0.00 0.00 1 1011.0
20260507035404 70 273 1.0 3.0 0.00 0.00 0.00 1 1010.8
20260507034505 70 284 0.0 3.0 0.00 0.00 0.00 1 1010.8
20260507033816 70 273 0.0 1.0 0.00 0.00 0.00 1 1010.7
20260507032705 70 268 0.0 2.0 0.00 0.00 0.00 1 1010.6
20260507031804 70 277 1.0 5.0 0.00 0.00 0.00 1 1010.6
20260507031118 70 299 1.0 5.0 0.00 0.00 0.00 1 1010.7
20260507030005 69 270 0.0 2.0 0.00 0.00 0.00 1 1011.0
20260507025616 69 265 0.0 1.0 0.00 0.00 0.00 1 1011.0
20260507024505 69 253 0.0 3.0 0.00 0.00 0.00 1 1011.1
20260507023605 69 265 0.0 1.0 0.00 0.00 0.00 1 1011.2
20260507022705 69 256 0.0 2.0 0.00 0.00 0.00 1 1011.3
20260507021805 69 231 0.0 1.0 0.00 0.00 0.00 1 1011.3
20260507021118 69 273 0.0 2.0 0.00 0.00 0.00 1 1011.1
20260507020005 69 281 0.0 2.0 0.00 0.00 0.00 1 1011.0
20260507015405 69 221 0.0 2.0 0.00 0.00 0.00 1 1010.9
20260507014504 69 194 0.0 1.0 0.00 0.00 0.00 1 1011.1
20260507013604 69 226 0.0 2.0 0.00 0.00 0.00 1 1011.2
20260507012705 70 218 0.0 3.0 0.00 0.00 0.00 1 1011.0
20260507011804 70 264 0.0 2.0 0.00 0.00 0.00 1 1011.0
20260507010904 70 281 0.0 3.0 0.00 0.00 0.00 6 1011.0
20260507010005 70 268 0.0 1.0 0.00 0.00 0.00 14 1011.2
20260507005404 71 262 0.0 3.0 0.00 0.00 0.00 17 1011.2
20260507004504 71 219 0.0 5.0 0.00 0.00 0.00 23 1011.3
20260507003604 72 268 0.0 3.0 0.00 0.00 0.00 27 1011.2
20260507002705 72 208 0.0 2.0 0.00 0.00 0.00 31 1011.0
20260507001805 72 199 0.0 3.0 0.00 0.00 0.00 35 1010.9
20260507000904 73 241 0.0 4.0 0.00 0.00 0.00 40 1010.9
20260507000005 74 249 0.0 4.0 0.00 0.00 0.00 44 1010.7
20260506235404 74 247 0.0 4.0 0.00 0.00 0.00 46 1010.5
20260506234505 74 263 1.0 6.0 0.00 0.00 0.00 49 1010.5
20260506233604 75 269 1.0 6.0 0.00 0.00 0.00 51 1010.5
20260506232705 75 227 1.0 4.0 0.00 0.00 0.00 51 1010.4
20260506231805 75 246 1.0 6.0 0.00 0.00 0.00 53 1010.2
20260506230905 76 266 2.0 7.0 0.00 0.00 0.00 54 1010.2
20260506230005 76 268 2.0 8.0 0.00 0.00 0.00 54 1010.2
20260506225404 76 273 1.0 5.0 0.00 0.00 0.00 55 1010.2
20260506224505 76 242 2.0 9.0 0.00 0.00 0.00 55 1010.1
20260506223605 76 260 2.0 11.0 0.00 0.00 0.00 55 1010.1
20260506222704 77 239 1.0 9.0 0.00 0.00 0.00 55 1010.4
20260506221804 77 262 2.0 7.0 0.00 0.00 0.00 55 1010.3
20260506220905 77 251 1.0 8.0 0.00 0.00 0.00 56 1010.3
20260506220005 77 265 1.0 5.0 0.00 0.00 0.00 55 1010.2
20260506215404 77 260 2.0 5.0 0.00 0.00 0.00 56 1010.2
20260506214505 77 255 2.0 8.0 0.00 0.00 0.00 56 1009.9
20260506213604 77 258 2.0 9.0 0.00 0.00 0.00 56 1009.8
20260506212705 77 243 2.0 7.0 0.00 0.00 0.00 56 1009.9
20260506211804 76 239 3.0 8.0 0.00 0.00 0.00 56 1010.0
20260506211116 76 261 2.0 8.0 0.00 0.00 0.00 56 1009.8
20260506210005 76 243 2.0 12.0 0.00 0.00 0.00 56 1009.6
20260506205405 76 195 1.0 8.0 0.00 0.00 0.00 56 1009.7
20260506204504 76 258 1.0 6.0 0.00 0.00 0.00 56 1009.8
20260506203815 76 252 2.0 7.0 0.00 0.00 0.00 56 1009.8
20260506202917 77 214 3.0 11.0 0.00 0.00 0.00 56 1010.0
20260506201804 77 257 3.0 11.0 0.00 0.00 0.00 56 1010.6
20260506200905 77 247 3.0 11.0 0.00 0.00 0.00 55 1010.7
20260506200005 77 232 2.0 8.0 0.00 0.00 0.00 55 1010.8
20260506195404 77 244 3.0 9.0 0.00 0.00 0.00 55 1010.9
20260506194505 77 267 3.0 10.0 0.00 0.00 0.00 55 1011.1
20260506193604 76 244 2.0 10.0 0.00 0.00 0.00 50 1011.4
20260506192704 77 257 3.0 8.0 0.00 0.00 0.00 52 1011.7
20260506191804 78 247 3.0 9.0 0.00 0.00 0.00 53 1011.6
20260506190905 78 244 3.0 8.0 0.00 0.00 0.00 50 1011.7
20260506190006 77 223 4.0 11.0 0.00 0.00 0.00 50 1011.8
20260506185405 77 224 3.0 10.0 0.00 0.00 0.00 49 1011.9
20260506184719 77 250 2.0 8.0 0.00 0.00 0.00 47 1011.9
20260506183604 76 237 3.0 10.0 0.00 0.00 0.00 46 1012.0
20260506182704 76 261 2.0 10.0 0.00 0.00 0.00 46 1012.1
20260506181805 77 250 2.0 10.0 0.00 0.00 0.00 45 1012.1
20260506180904 76 262 2.0 10.0 0.00 0.00 0.00 43 1012.0
20260506180006 76 250 3.0 12.0 0.00 0.00 0.00 45 1012.2
20260506175404 75 224 3.0 14.0 0.00 0.00 0.00 42 1012.4
20260506174504 74 246 3.0 9.0 0.00 0.00 0.00 36 1012.7
20260506173605 74 274 3.0 10.0 0.00 0.00 0.00 39 1012.7
20260506172704 74 250 3.0 9.0 0.00 0.00 0.00 37 1012.9
20260506171804 73 221 2.0 6.0 0.00 0.00 0.00 28 1013.0
20260506170904 73 262 3.0 10.0 0.00 0.00 0.00 29 1013.3
20260506170005 73 263 3.0 14.0 0.00 0.00 0.00 27 1013.5
20260506165405 72 268 3.0 14.0 0.00 0.00 0.00 24 1013.4
20260506164505 72 266 2.0 6.0 0.00 0.00 0.00 17 1013.6
20260506163817 72 253 2.0 8.0 0.00 0.00 0.00 13 1013.4
20260506162704 71 242 2.0 10.0 0.00 0.00 0.00 3 1013.4
20260506161804 71 225 2.0 8.0 0.00 0.00 0.00 6 1013.5
20260506160904 71 271 2.0 10.0 0.00 0.00 0.00 3 1013.7
20260506160005 71 265 3.0 10.0 0.00 0.00 0.00 6 1013.8
20260506155404 71 262 3.0 9.0 0.00 0.00 0.00 3 1013.9
20260506154716 70 270 2.0 9.0 0.00 0.00 0.00 4 1014.0
20260506153818 70 246 3.0 13.0 0.00 0.00 0.00 3 1014.0
20260506152704 70 222 2.0 9.0 0.00 0.00 0.00 1 1014.4
20260506151805 70 240 2.0 10.0 0.00 0.00 0.00 5 1014.5